Location: Newark
(45.4422°N, 16.2769°E)
Time: 03:09:33
(UTC+00:00)

Courier 1B - Pass Details

Date: 15 December 2019
Orbit: 962 x 1209 km, 28.3° (Epoch: 23 January)

Event Time Altitude Azimuth Distance (km) Brightness Sun altitude
Rises 23:03:53 0° 249° (WSW) 3,986 - -67.7°
Reaches altitude 10° 23:10:24 10° 208° (SSW) 3,087 - -67.5°
Maximum altitude 23:11:07 10° 203° (SSW) 3,081 - -67.4°
Drops below altitude 10° 23:11:49 10° 198° (SSW) 3,097 - -67.4°
Sets 23:18:31 0° 158° (SSE) 4,093 - -67.1°
